RH
36 37 39 41 43 45 47 49 51 53 55 56 58 59 60 59 58 58 58 58 58 56 55 55 56 58 60 61 61 61 61 61 60 58 56 54 53 52 51 50 48 44 40 38 36 34 32 30 28 26 25 23 21 20 18 16 16 15 14 13 12 11 11
40 42 44 46 48 51 53 55 57 59 61 63 64 65 67 67 68 68 68 67 64 62 61 61 62 64 64 64 64 64 64 64 62 59 57 56 54 53 52 52 50 47 42 39 37 35 33 32 31 29 26 23 21 18 17 18 20 21 21 20 17 16 16
45 47 49 50 53 56 59 61 62 65 67 69 70 71 73 76 76 76 75 72 68 66 66 67 67 68 68 68 67 67 67 66 63 60 59 58 57 56 55 53 51 47 42 38 36 35 34 33 31 28 25 23 23 24 24 26 28 29 29 27 25 23 22
49 51 53 56 59 63 66 68 69 72 75 78 79 80 82 84 84 83 79 74 71 70 70 71 71 72 72 71 70 69 69 67 65 63 61 60 60 59 56 54 50 46 42 39 37 36 34 31 29 28 29 32 34 35 35 34 32 31 29 27 25 24 22
54 57 60 65 69 74 76 78 80 82 86 89 90 91 92 92 90 86 80 75 73 72 73 73 74 75 75 73 72 71 70 68 66 65 64 63 62 60 57 53 50 48 46 43 40 36 32 31 32 36 39 41 41 38 35 32 29 27 24 22 19 18 17
64 68 73 78 83 86 89 91 93 96 99 101 102 101 99 96 91 85 79 76 75 75 75 76 77 77 76 74 73 72 71 69 68 67 66 65 63 61 58 55 53 52 49 45 39 36 35 37 42 44 44 42 38 34 31 27 24 21 18 16 13 12 12
78 84 88 93 96 98 100 102 104 106 107 107 107 105 101 94 87 81 78 77 77 77 78 79 79 78 77 75 74 72 70 68 68 67 66 66 64 61 59 58 57 53 49 45 42 42 43 46 47 46 42 38 33 29 25 22 19 16 14 12 11 10 10
94 98 101 101 102 104 106 108 108 107 106 105 106 104 97 89 83 79 78 78 79 80 81 81 81 79 78 76 74 71 69 69 70 70 69 67 65 63 61 60 57 53 51 49 49 51 52 50 47 43 38 33 29 25 21 18 16 13 11 10 10 10 10
102 104 103 103 104 107 108 107 105 104 104 104 103 97 89 83 80 78 78 79 80 82 83 83 83 81 79 77 76 74 72 73 74 73 70 67 65 64 62 59 56 54 55 56 57 57 55 50 44 39 34 29 25 20 17 15 12 11 10 10 10 12 14
104 103 102 103 105 106 106 104 102 102 104 102 97 89 82 79 79 79 78 79 81 84 86 86 85 83 81 80 79 78 78 78 77 73 70 68 66 64 62 60 60 60 60 61 60 57 52 47 41 35 30 25 21 17 14 12 11 10 11 11 12 15 18
103 102 102 104 104 103 104 104 103 102 100 96 89 82 79 78 79 79 79 82 85 88 90 90 89 87 86 84 83 83 84 82 78 74 71 69 65 62 61 63 65 65 64 63 60 55 49 43 37 31 26 21 17 14 12 11 12 12 13 15 15 17 21
102 102 101 102 103 104 104 102 100 97 94 89 85 82 80 79 79 79 82 86 90 92 92 91 91 91 91 90 90 90 88 84 79 75 73 70 66 64 65 67 67 67 66 63 57 52 45 39 33 27 21 17 14 13 12 12 14 17 18 19 19 20 22
100 101 101 103 104 103 100 96 94 92 90 87 85 85 84 82 81 83 86 90 93 93 92 91 92 92 93 95 96 95 90 84 80 77 75 72 71 72 73 72 70 69 67 61 54 48 41 34 29 23 18 15 14 13 14 17 21 23 24 24 24 24 24
101 102 103 102 101 97 93 92 91 90 90 89 89 89 88 87 87 89 91 93 95 94 93 92 92 93 95 97 98 95 89 83 80 78 77 77 78 80 79 76 74 71 66 59 51 44 37 30 25 19 15 14 14 14 19 25 29 30 29 29 27 26 26
102 102 102 99 96 92 91 91 92 93 94 94 94 94 93 93 92 93 94 96 97 96 94 93 94 95 97 97 96 93 87 83 82 80 80 82 84 84 82 79 77 71 62 54 46 39 34 27 21 17 15 15 16 20 27 33 35 34 33 32 30 29 29
101 101 101 98 95 93 94 95 97 99 98 98 98 97 96 96 96 96 97 97 97 95 93 93 95 96 96 94 93 90 85 83 84 84 84 86 86 85 84 82 77 67 57 49 42 35 29 23 19 16 15 16 19 27 35 39 38 37 34 32 31 30 30
100 99 99 99 98 98 98 99 100 100 100 100 100 98 95 94 94 92 92 94 95 94 93 94 96 96 94 92 90 87 85 85 87 86 86 87 86 86 85 82 73 62 52 44 37 31 25 20 18 17 17 19 24 32 40 42 39 37 35 32 31 30 30
100 101 101 100 100 99 99 100 100 101 101 99 97 94 89 84 80 79 83 89 91 93 94 96 97 96 92 88 86 86 87 89 91 87 84 84 86 87 85 77 67 56 47 40 33 27 23 19 18 19 21 26 33 39 43 43 40 37 35 32 31 30 29
100 100 99 99 100 101 102 102 99 95 90 84 83 81 75 69 67 70 79 85 87 92 98 100 100 97 91 87 87 89 91 94 94 87 83 85 87 86 81 71 60 50 41 35 29 24 21 20 20 23 30 38 43 46 46 43 39 37 34 32 31 31 30
101 101 102 102 101 96 91 85 78 71 67 65 67 70 67 64 66 73 80 85 88 93 101 103 102 98 92 89 90 92 95 100 95 86 84 87 86 81 76 66 55 45 36 29 25 22 20 21 23 32 42 50 51 49 45 42 39 36 34 32 32 33 32
96 92 87 81 73 65 59 55 52 52 54 56 62 68 71 71 75 80 84 87 91 97 102 104 103 99 95 94 94 94 97 100 96 88 86 86 81 77 73 64 51 40 31 25 24 23 22 24 30 42 53 56 54 48 44 41 38 35 34 32 32 33 33
62 55 50 46 43 42 44 48 51 54 59 64 70 77 81 83 86 89 90 91 95 100 104 105 104 102 99 98 98 97 97 100 99 93 89 85 80 76 71 60 45 34 28 25 25 25 26 31 43 56 62 58 52 47 43 41 38 36 35 34 33 33 34
36 36 38 42 46 49 54 60 64 68 74 79 83 88 92 94 96 97 97 97 99 101 104 106 106 104 101 101 101 99 98 101 100 95 91 87 81 75 68 55 41 31 26 26 27 27 31 43 57 65 63 56 50 47 44 41 39 37 36 35 36 38 39
44 49 53 58 64 70 74 77 79 83 88 92 96 99 101 103 104 104 103 100 100 101 103 105 107 105 101 102 103 101 101 102 100 96 93 88 81 74 64 51 37 29 27 28 29 32 42 58 68 67 60 54 51 48 44 41 39 38 37 38 42 46 46
65 69 72 76 81 86 89 91 93 97 101 102 102 103 103 104 106 106 103 99 99 101 101 103 105 104 103 105 105 103 103 103 101 99 94 87 80 72 59 45 34 29 29 31 31 39 56 71 71 63 57 54 51 47 43 41 40 38 39 45 51 52 49
79 80 82 85 89 93 97 100 102 105 107 104 100 99 101 103 104 105 103 101 101 102 101 102 104 105 106 107 105 104 104 105 104 101 94 87 80 67 51 39 32 30 32 32 35 50 71 76 68 60 57 56 52 48 44 41 39 39 44 52 58 56 51
85 86 89 92 94 97 100 103 104 106 107 104 100 100 102 103 103 103 103 103 103 103 102 102 104 105 105 104 103 103 104 106 105 99 93 87 75 58 44 35 31 33 36 34 42 64 79 75 64 61 61 59 54 49 44 40 40 46 54 59 59 56 51
89 91 94 96 96 98 101 102 103 104 104 102 103 105 104 102 101 101 101 102 103 103 102 101 102 103 103 102 103 102 103 105 104 97 91 84 67 50 40 34 33 38 38 37 54 78 83 72 65 65 64 61 56 49 43 41 47 58 66 65 59 54 51
91 93 94 95 95 96 97 98 100 101 101 102 104 105 103 101 100 100 100 101 102 102 102 100 100 102 103 103 102 101 102 105 102 94 88 78 59 44 37 35 38 42 39 45 70 89 83 71 69 70 67 62 56 48 43 45 57 70 72 65 58 54 50
91 91 90 90 89 87 87 89 95 99 101 103 104 103 101 100 100 100 100 101 102 101 100 100 101 102 104 103 101 101 103 103 98 92 84 69 52 42 37 38 44 44 41 57 85 93 82 74 73 72 69 63 54 47 46 54 69 76 71 63 58 53 50
85 81 78 76 75 74 73 76 83 91 98 103 105 103 102 100 100 101 101 100 101 100 100 101 103 103 102 102 100 102 104 101 95 89 77 60 48 42 39 44 49 45 47 73 96 93 81 78 78 74 70 62 52 47 51 65 78 78 70 63 58 52 51
70 65 62 60 60 61 61 63 69 78 91 102 106 105 103 101 100 101 101 100 101 100 100 102 104 102 101 101 101 101 101 99 94 84 68 55 47 42 43 51 52 46 58 87 101 93 85 84 82 77 70 59 50 50 60 75 82 77 69 63 56 52 53
57 55 53 53 52 53 55 57 62 72 87 100 106 107 104 101 101 101 101 101 101 101 100 101 101 100 101 101 100 99 100 98 89 75 61 51 45 44 51 57 51 51 73 98 103 96 92 90 84 77 68 56 50 57 73 85 85 76 68 61 54 53 56
55 54 52 52 51 51 53 57 64 77 92 102 105 105 103 103 102 101 100 101 102 101 101 101 101 101 102 99 97 98 99 94 81 66 56 50 46 50 60 59 52 62 88 104 103 98 96 93 86 77 64 54 55 68 85 92 85 75 67 59 54 56 60
59 56 53 53 54 56 60 63 69 83 98 104 103 103 104 104 103 101 101 102 102 101 101 101 101 102 102 100 99 99 95 86 73 61 54 51 52 61 66 59 55 73 97 106 104 101 98 94 87 74 61 56 64 81 95 95 85 75 66 58 56 60 64
63 62 59 58 59 63 66 69 76 89 102 107 105 104 104 105 103 101 101 102 102 102 102 101 101 102 102 101 101 97 89 79 68 57 53 55 62 71 69 58 62 84 102 104 104 104 100 93 85 72 60 61 75 92 101 96 85 76 66 60 60 64 68
Wind_Speed
69 69 69 69 69 70 70 70 70 71 71 71 71 71 71 71 71 71 71 71 71 71 71 71 71 71 71 71 71 71 71 72 72 72 73 73 73 73 74 75 75 75 73 73 76 77 78 78 79 80 81 83 83 84 83 82 82 83 83 84 85 86 87
69 70 70 70 70 71 71 71 72 72 72 72 72 72 72 72 72 72 72 71 71 71 72 71 71 71 71 71 71 71 71 72 72 73 73 73 73 74 74 75 76 76 75 74 75 77 78 78 79 80 81 82 81 81 80 77 77 77 78 79 80 80 82
70 71 71 71 72 72 72 73 73 73 73 73 73 73 73 73 72 72 72 72 72 72 71 71 71 71 71 71 70 70 71 71 72 73 73 73 74 74 75 76 76 77 76 75 76 77 78 77 77 78 78 77 76 74 73 72 71 72 73 74 75 76 76
71 72 72 73 73 73 74 74 74 74 74 73 73 73 73 73 73 72 72 72 72 71 71 71 71 71 71 71 70 70 71 72 72 72 73 73 74 74 75 76 77 77 77 77 76 76 77 76 74 72 71 70 69 68 68 68 68 69 70 72 73 73 74
72 73 73 74 74 74 75 75 75 74 74 73 73 73 73 73 73 73 72 72 71 71 70 71 70 71 71 70 70 70 71 72 72 72 73 73 74 75 75 76 77 77 77 77 76 75 74 71 68 66 65 66 65 65 66 67 67 67 69 70 72 73 74
74 74 74 75 75 75 75 76 75 75 74 73 73 73 73 73 73 72 72 71 70 70 70 70 70 70 70 70 70 71 71 72 72 72 72 73 74 75 75 76 76 76 76 76 74 72 69 66 63 62 62 64 64 64 64 65 66 67 68 70 71 72 73
75 75 75 75 76 76 76 76 75 74 74 73 73 73 73 73 72 71 71 70 70 70 70 70 70 70 70 70 70 71 72 72 72 72 72 73 74 75 75 75 75 75 74 73 70 68 65 62 61 61 61 63 63 63 64 65 65 66 68 69 70 71 71
76 76 76 76 76 76 76 75 75 74 73 73 73 73 72 72 72 71 71 70 70 70 69 69 69 70 70 70 70 71 72 72 71 71 72 73 73 74 74 74 73 72 71 69 66 64 63 61 60 60 61 62 63 63 64 65 65 65 67 68 68 68 68
76 76 76 76 76 75 75 74 74 74 73 73 73 73 72 72 72 71 71 71 70 70 69 69 69 69 69 70 70 71 72 71 71 71 72 72 73 73 73 72 70 69 67 65 64 62 62 61 60 60 61 62 63 64 64 65 65 65 65 65 64 63 63
76 76 76 76 75 74 74 73 73 73 73 73 73 73 73 72 72 72 72 71 70 69 69 69 69 69 69 69 70 71 71 71 71 72 72 72 72 72 71 69 67 65 64 63 62 61 61 61 60 61 62 62 63 64 64 63 63 63 62 62 61 59 59
77 76 76 75 74 73 73 73 73 73 73 73 73 73 73 73 73 72 72 71 70 69 68 68 68 69 69 70 70 71 71 71 72 72 71 71 71 70 69 67 64 63 62 61 61 60 61 60 60 60 61 62 63 63 62 61 61 60 59 58 58 56 55
77 76 76 75 73 73 73 73 73 73 73 73 74 74 74 74 73 73 71 70 68 68 67 67 67 68 69 70 70 71 71 71 71 71 71 70 69 68 66 65 63 61 60 60 60 59 60 60 60 60 61 61 61 61 60 59 57 56 55 55 55 54 53
77 76 75 74 73 73 73 73 73 73 73 73 74 74 74 74 73 73 71 70 68 68 68 67 67 68 69 69 70 70 71 71 70 70 69 68 67 65 64 63 62 61 60 59 59 58 59 59 59 59 59 60 59 58 57 55 53 53 53 52 52 51 51
76 75 75 74 74 73 73 73 73 73 73 74 74 74 74 74 73 72 71 70 69 68 68 68 68 68 69 70 70 70 70 70 69 68 67 66 64 63 62 61 61 61 60 59 58 58 58 58 58 58 57 58 58 56 53 51 50 51 51 50 50 50 51
76 75 75 74 74 74 73 73 73 74 74 74 74 74 74 74 73 72 71 70 69 68 68 68 68 69 69 70 70 70 70 69 68 66 64 63 61 60 60 60 60 60 59 58 58 58 57 57 57 56 56 55 54 52 50 48 48 49 49 49 49 49 51
75 75 75 74 74 73 73 73 74 74 74 74 74 75 74 74 73 72 71 69 68 68 68 68 69 69 70 69 69 70 69 68 66 64 62 60 59 59 59 59 59 59 58 57 57 57 57 56 56 55 55 53 51 48 47 47 47 47 48 48 48 48 50
75 74 74 74 73 73 73 74 74 75 75 75 75 75 74 74 73 71 70 68 68 68 68 68 69 69 69 69 69 69 68 66 64 61 59 58 57 57 57 58 59 58 57 56 56 56 56 55 54 54 53 51 48 45 45 45 46 47 48 48 48 48 49
74 74 74 73 73 74 74 75 75 76 76 75 75 74 74 73 71 70 68 67 67 67 67 68 69 69 69 68 68 67 66 63 61 59 58 56 56 56 56 57 58 57 56 55 55 55 55 54 53 51 49 47 45 43 43 44 45 46 47 48 47 47 47
74 74 74 74 74 75 76 76 76 76 75 74 74 73 72 71 69 67 66 65 66 66 67 68 68 69 69 67 66 64 62 61 59 58 56 55 54 55 55 56 56 56 56 55 55 54 53 51 50 48 46 43 42 42 42 44 45 46 47 47 47 48 47
74 74 74 75 76 77 77 77 76 75 74 72 71 71 70 68 67 65 64 64 65 65 66 67 68 68 67 65 63 61 59 59 58 57 54 54 54 53 54 55 55 54 54 54 54 53 51 49 47 44 42 41 40 41 42 43 44 45 46 46 46 47 47
75 75 75 76 76 76 75 74 73 72 71 69 68 68 67 66 65 64 64 63 64 65 66 66 66 66 64 62 60 58 57 57 58 56 54 54 53 52 52 53 53 53 53 52 52 51 49 47 44 41 39 39 40 41 42 43 44 44 45 45 46 46 46
74 73 73 73 72 72 71 70 69 68 67 66 65 65 65 65 64 64 63 63 63 64 64 64 64 63 61 60 58 57 56 56 56 55 54 53 52 51 51 52 52 51 51 50 49 48 46 44 41 38 38 38 39 40 41 43 43 44 44 44 45 45 45
70 69 69 68 68 68 68 67 67 66 65 64 64 63 64 64 64 63 63 62 62 62 62 62 61 60 59 57 56 56 55 55 55 55 54 53 52 51 51 50 50 50 49 48 47 45 43 40 38 36 37 38 39 40 41 42 43 43 43 44 44 44 45
66 66 65 65 66 66 66 66 66 65 64 63 63 63 63 64 64 63 63 62 61 60 60 59 59 58 57 56 55 55 55 54 54 54 53 52 52 51 50 49 49 48 47 45 44 42 40 38 36 36 36 38 39 40 41 41 42 42 42 42 42 44 45
64 64 65 65 64 65 65 66 65 64 63 63 63 63 63 63 63 63 63 61 60 59 58 57 57 56 55 54 55 55 54 54 53 52 52 52 51 50 49 48 47 46 44 43 41 39 37 36 35 35 36 37 38 39 40 41 41 41 40 40 41 43 45
65 65 65 65 65 65 65 65 65 64 64 64 63 63 63 63 62 62 61 60 58 57 57 56 55 54 54 54 54 54 53 53 52 51 51 51 50 49 48 46 45 44 42 40 38 36 35 34 34 34 35 36 37 38 39 40 40 39 38 38 40 43 44
66 66 66 65 65 65 65 65 65 65 65 64 64 63 62 62 61 61 60 58 57 56 56 55 54 53 53 53 53 53 52 51 50 50 50 49 48 47 46 45 44 42 40 38 35 34 32 32 33 33 34 36 37 38 38 38 38 37 37 38 39 42 43
67 67 67 66 66 66 65 65 66 66 66 65 64 63 62 61 61 60 59 57 56 55 55 54 54 53 53 52 52 52 51 50 49 49 48 48 47 45 44 43 42 40 38 35 33 32 31 31 32 32 34 35 36 37 37 37 36 35 36 37 38 40 42
68 68 67 67 66 66 66 66 66 67 66 65 64 63 62 61 60 59 58 57 56 55 54 53 53 52 52 52 51 50 50 49 48 48 47 46 45 44 43 42 40 39 36 33 31 31 30 30 31 32 33 35 35 36 35 34 33 33 34 36 37 39 41
69 68 68 67 67 67 67 66 67 67 66 65 64 63 62 61 60 59 58 56 55 54 53 52 51 51 51 51 50 49 48 47 46 46 45 44 43 42 41 40 38 37 34 31 30 30 29 29 30 31 33 34 34 34 33 32 31 32 32 34 36 38 39
69 68 68 67 67 67 67 66 66 66 65 63 63 61 60 59 58 57 56 55 54 52 51 50 50 50 50 49 48 47 47 46 45 44 44 43 41 40 39 38 36 35 32 30 29 29 28 28 29 30 32 33 33 32 31 30 29 30 31 32 35 36 36
69 68 67 67 66 66 65 65 64 63 62 61 60 59 58 56 55 55 54 53 52 50 49 49 49 48 48 47 46 46 45 44 43 43 42 41 40 39 37 36 35 33 30 29 28 28 27 27 28 30 31 32 31 30 28 27 27 28 29 31 33 33 33
68 67 66 65 65 64 63 63 61 60 59 58 57 56 55 53 52 52 51 51 49 48 47 47 47 47 46 45 44 44 43 42 41 41 40 39 38 37 35 34 33 31 29 28 27 27 26 26 27 29 30 30 29 28 26 25 25 26 28 29 31 30 29
66 66 65 64 63 62 61 59 58 56 55 54 53 53 52 50 49 48 48 48 47 46 45 45 45 45 44 43 43 42 41 40 39 39 38 38 37 35 33 32 31 29 28 27 26 25 25 26 26 28 28 28 27 26 24 23 23 24 26 27 28 27 26
65 65 64 62 60 59 58 56 55 53 51 50 50 50 49 48 47 46 46 46 46 45 44 44 44 43 43 42 41 41 40 39 38 37 36 35 35 33 32 30 29 28 27 26 25 24 24 25 26 26 26 26 25 23 22 21 22 22 23 25 25 24 23
62 62 62 60 58 56 54 53 51 49 48 47 47 47 47 46 45 44 44 44 44 44 43 43 42 42 41 40 39 39 38 38 37 35 34 33 33 32 30 29 28 27 26 25 24 23 23 23 24 25 25 24 23 21 20 20 19 20 21 22 22 22 20
Wind_Direction
292 292 293 292 292 292 292 292 292 292 292 292 292 291 291 290 290 290 290 290 290 290 290 290 290 290 290 290 290 289 289 288 288 287 287 287 287 287 287 286 286 285 284 284 283 283 282 282 282 281 280 279 278 277 276 275 273 272 270 268 266 265 264
292 292 292 292 292 292 291 291 291 291 291 291 291 291 290 290 290 290 290 291 291 291 291 292 292 291 291 291 290 290 289 289 289 288 288 288 288 288 287 287 287 286 285 285 284 284 284 283 283 282 281 280 278 277 275 274 272 271 270 269 267 265 265
292 292 292 291 291 291 291 291 290 290 290 290 290 290 290 290 290 290 291 291 291 292 292 293 293 292 292 292 291 291 290 290 290 290 289 289 289 289 289 288 288 288 287 286 285 285 284 284 283 282 281 279 277 276 274 273 272 271 270 270 268 267 265
291 291 291 291 290 290 290 290 290 290 290 290 290 290 290 290 290 291 291 291 292 293 293 293 293 293 293 293 292 292 291 291 291 290 290 290 290 290 290 289 289 289 289 288 287 286 285 284 283 281 279 278 276 275 275 273 272 271 271 270 270 268 267
291 291 291 290 290 290 290 289 290 290 290 290 290 290 290 291 291 291 292 292 293 294 294 294 294 294 293 293 293 292 291 291 291 291 291 291 291 291 290 290 290 290 290 289 288 287 285 284 283 280 278 277 276 276 275 275 274 272 272 271 271 270 268
291 290 290 290 289 289 289 289 290 290 290 290 290 290 291 291 292 292 293 293 294 294 295 294 294 294 293 293 292 292 291 291 291 291 291 291 291 291 291 291 291 290 290 290 289 288 286 284 282 280 279 278 277 277 276 275 275 274 273 272 272 272 270
290 290 289 289 289 289 289 289 289 290 290 290 291 291 291 292 292 293 294 294 295 295 295 294 294 293 293 292 292 291 291 291 291 292 292 291 291 291 291 291 291 291 291 290 289 288 286 284 282 281 280 280 279 278 277 276 276 276 275 275 274 273 272
289 289 289 288 288 288 289 289 290 290 290 290 291 291 292 292 293 294 294 295 295 295 294 294 293 293 292 291 291 291 291 291 292 292 292 291 291 291 291 291 291 291 290 289 288 287 286 284 283 282 282 281 281 280 279 278 278 277 277 276 275 274 272
288 288 288 288 288 289 289 290 290 290 290 291 291 292 292 293 294 295 295 295 295 295 294 293 292 292 291 291 291 291 291 292 292 292 292 291 291 291 291 291 291 290 290 288 287 286 285 284 284 284 283 283 282 282 281 281 280 279 278 276 275 273 271
288 288 288 289 289 290 290 290 291 291 291 291 292 292 293 294 294 295 295 295 295 294 293 293 292 291 291 291 291 291 292 292 292 292 292 292 291 291 291 291 291 290 289 287 286 286 285 285 285 285 285 285 284 284 283 282 281 280 277 275 273 271 270
288 289 289 290 291 291 291 291 291 291 291 292 292 293 294 294 294 294 294 294 294 294 293 292 292 292 292 292 292 292 293 293 293 293 293 292 292 292 291 291 290 289 288 287 286 286 286 286 286 286 286 286 285 285 284 283 280 278 275 273 271 269 269
289 290 290 291 291 291 291 291 291 291 292 292 293 293 293 293 293 293 294 294 293 293 292 292 291 291 291 291 291 292 293 293 293 293 292 292 292 292 291 290 289 288 287 287 286 286 286 287 287 288 288 287 286 285 284 281 278 275 273 272 271 270 269
290 291 291 291 291 291 291 291 291 292 292 292 293 293 293 293 293 293 294 294 293 293 292 291 291 290 290 291 291 292 292 292 292 292 292 292 292 291 291 290 289 288 287 287 286 287 287 288 289 289 289 287 286 284 281 279 276 274 272 272 271 271 271
290 291 291 291 291 291 291 291 292 292 292 292 292 292 292 293 293 294 294 294 293 292 292 291 290 290 290 291 292 292 292 292 292 291 292 291 291 290 290 289 289 288 288 288 288 288 288 289 290 290 288 286 284 282 279 276 273 272 272 273 273 273 273
290 290 290 290 291 291 291 291 291 291 291 292 292 292 292 293 294 294 294 293 292 292 291 290 290 290 290 291 292 292 292 292 292 291 291 291 290 290 290 289 289 289 289 289 289 289 289 290 290 289 287 284 282 280 276 273 271 272 273 274 274 275 275
289 289 289 290 290 291 291 291 291 291 291 291 291 292 292 293 293 293 293 292 291 291 290 290 290 290 291 292 292 292 292 292 291 291 291 290 290 290 290 290 289 289 289 289 289 290 290 290 289 288 285 283 279 276 273 271 272 273 274 274 275 275 276
288 289 289 290 290 290 290 290 290 290 291 291 291 292 292 292 292 292 291 291 290 290 289 290 290 291 291 292 292 292 291 291 291 290 290 289 290 290 290 290 289 289 290 290 290 291 291 290 289 287 284 281 277 273 271 272 274 275 275 276 276 276 277
288 289 289 290 290 290 290 290 290 290 290 291 291 291 291 291 291 290 290 289 289 289 289 290 290 291 291 292 291 291 291 290 290 289 289 289 290 290 290 290 290 290 290 290 290 290 290 289 288 285 282 278 275 273 273 274 276 277 277 277 278 277 277
288 288 289 289 289 289 289 289 289 289 289 290 290 290 290 289 289 289 289 289 289 289 289 290 290 290 291 291 290 290 290 290 289 288 289 290 290 290 290 290 291 291 291 291 291 290 290 288 286 282 279 276 274 273 275 276 277 278 279 279 280 279 279
287 287 288 288 288 288 288 288 288 288 289 289 289 289 288 288 289 289 288 288 288 288 289 289 289 290 290 290 290 289 289 289 288 288 289 289 289 289 290 290 290 291 291 291 291 290 289 287 283 279 276 274 274 275 276 277 278 279 280 280 281 281 281
286 286 286 286 287 287 287 287 287 288 288 288 288 288 288 288 288 288 288 288 288 288 288 288 289 289 289 289 289 288 288 288 288 289 289 288 288 290 290 290 290 290 290 290 290 289 288 285 281 276 273 273 275 277 278 280 280 281 282 282 282 282 283
285 285 286 286 286 286 286 287 287 287 287 287 287 287 287 288 287 287 287 288 288 288 288 288 288 288 288 288 288 287 287 287 288 288 289 289 289 290 290 290 290 290 290 289 289 287 285 282 277 274 273 275 277 279 281 282 283 284 284 284 284 284 284
285 285 286 286 286 286 287 287 287 287 287 287 288 287 287 287 287 287 287 287 287 287 287 287 287 287 287 287 286 286 286 287 287 288 289 289 290 290 289 290 290 289 289 288 287 285 281 277 273 272 274 277 280 281 283 284 285 285 285 285 285 285 285
286 286 286 287 287 287 287 287 287 287 287 287 287 287 287 287 287 287 287 287 287 286 286 286 285 286 286 286 285 285 286 286 287 288 288 289 289 290 290 290 289 289 288 287 285 281 276 272 270 272 275 278 281 283 285 287 287 287 286 286 286 286 286
287 287 287 287 287 287 287 287 287 288 287 287 287 287 286 286 286 286 286 286 286 286 285 284 284 285 285 285 284 285 285 286 287 288 288 289 289 290 290 290 289 288 287 285 282 276 271 268 269 272 275 279 282 285 287 288 288 287 286 286 286 287 289
287 287 287 287 287 287 287 287 287 287 287 286 286 287 286 286 286 286 286 286 285 285 284 284 283 284 284 284 284 284 285 286 286 287 288 289 289 290 290 289 289 287 285 283 278 271 266 266 269 272 277 281 285 288 289 289 289 287 286 286 288 290 292
287 287 287 287 287 287 287 287 287 286 286 286 286 286 286 285 285 285 285 285 284 284 283 283 283 283 282 282 283 283 284 285 286 287 288 288 289 289 289 289 287 285 283 280 274 266 263 265 269 274 279 284 287 289 290 290 288 286 286 288 290 293 295
287 287 287 287 287 287 286 286 286 285 286 286 286 286 285 284 284 284 283 283 282 282 282 282 282 282 281 281 282 283 284 285 285 286 287 288 288 289 288 287 285 283 281 277 269 263 262 265 270 275 281 286 289 291 291 289 286 285 287 291 293 296 298
287 287 287 287 286 286 286 285 285 285 285 286 285 284 284 283 282 282 281 281 281 281 281 281 281 280 280 281 281 282 283 284 285 286 286 287 288 287 286 285 283 281 279 272 265 261 263 266 271 277 283 288 291 292 291 287 284 285 289 293 296 299 300
287 286 286 286 285 285 285 285 285 285 285 284 284 283 282 282 281 280 280 279 279 279 279 279 279 279 279 280 281 282 283 283 284 285 286 286 287 286 285 283 281 279 275 267 260 259 262 266 273 279 285 289 292 292 289 284 283 287 292 296 299 301 303
286 286 285 285 285 285 285 285 284 284 284 283 282 282 281 280 280 279 279 278 278 278 278 278 277 278 279 279 281 282 282 283 284 285 285 285 285 284 283 281 278 276 270 262 257 258 262 267 275 281 287 291 292 291 286 283 284 290 295 299 302 304 304
285 285 285 285 285 285 284 284 284 283 283 282 281 281 280 279 278 278 278 277 277 277 277 276 277 277 278 279 280 281 282 283 284 284 284 284 284 282 280 278 276 272 264 257 255 257 262 269 276 283 288 291 292 289 284 282 287 293 297 301 305 306 306
285 285 285 285 284 284 284 284 283 283 282 281 280 280 279 278 277 277 277 277 277 276 276 276 277 277 277 278 279 280 282 282 283 283 283 283 282 280 278 276 272 267 259 253 252 256 262 270 278 284 289 292 290 286 283 284 288 294 299 304 308 309 309
285 285 285 285 284 284 284 283 283 282 281 280 279 279 277 277 276 275 276 276 276 276 275 276 276 277 277 278 279 280 280 281 281 282 282 281 280 278 275 272 268 260 252 249 250 255 262 271 278 285 289 291 289 285 283 285 289 295 301 307 311 312 313
285 285 285 285 284 284 283 282 282 281 280 279 278 277 276 276 276 275 275 275 275 275 275 275 276 277 278 279 279 279 279 280 280 280 280 279 277 275 272 269 263 254 246 245 248 254 262 271 279 285 289 290 287 284 282 285 289 296 304 311 314 317 318
286 286 285 285 284 283 282 281 281 280 279 277 276 275 275 275 275 275 275 275 275 275 275 275 276 277 278 278 278 279 279 279 279 279 277 276 274 271 269 264 257 248 242 241 246 253 262 270 279 285 288 288 285 283 281 283 288 296 307 315 319 321 322